Location: Cheching
(60.0667°N, 164.2167°W)
Time: 13:46:23
(UTC+00:00)

STRAND 1 - Pass Details

Date: 19 January 2021
Orbit: 768 x 780 km, 98.4° (Epoch: 04 March)

Event Time Altitude Azimuth Distance (km) Brightness Sun altitude
Rises 15:15:59 0° 116° (ESE) 3,244 ? -31.2°
Reaches altitude 10° 15:18:36 10° 104° (ESE) 2,322 ? -30.9°
Maximum altitude 15:22:46 26° 49° (NE) 1,500 ? -30.4°
Drops below altitude 10° 15:26:57 10° 355° (N) 2,338 ? -29.9°
Enters shadow 15:27:28 - 352° (N) 2,513 ? -29.8°
